Location: St Paul
(44.9440°N, 93.0930°W)
Time: 23:04:08
(UTC-05:00)

OTV 5 (USA 277) - Visible Passes

Search period start: 17 October 2017 00:00
Search period end: 27 October 2017 00:00
Orbit: 404 x 417 km, 43.0° (Epoch: 07 September)

Date Brightness Start Highest point End Pass type
(mag) Time Alt. Az. Time Alt. Az. Time Alt. Az.
17 Oct ? 19:13:03 10° W 19:16:25 63° S 19:19:02 15° ESE visible
17 Oct ? 20:50:24 10° W 20:51:47 20° WSW 20:51:47 20° WSW visible
18 Oct ? 19:59:17 10° W 20:02:30 43° SSW 20:03:06 39° SSE visible
19 Oct ? 19:08:12 10° W 19:11:30 52° S 19:14:27 12° ESE visible
19 Oct ? 20:45:52 10° WSW 20:47:13 17° SW 20:47:13 17° SW visible
20 Oct ? 19:54:35 10° W 19:57:30 26° SSW 19:58:39 21° S visible
21 Oct ? 19:03:25 10° W 19:06:31 34° SSW 19:09:38 10° SE visible
22 Oct ? 19:50:26 10° WSW 19:52:20 14° SSW 19:54:16 10° S visible
23 Oct ? 18:58:54 10° WSW 19:01:27 20° SSW 19:03:59 10° SSE visible
